Regional Weather Roundup
Issued by NWS Northern Indiana

Home | Current Version | Previous Version | Text Only | Print | Product List | Glossary On
Versions: 1 2 3 4 5 6 7 8 9 10 11 12 13 14 15 16 17 18 19 20 21 22 23 24 25 26 27 28 29 30 31 32 33 34 35 36 37 38 39 40 41 42 43 44 45 46 47 48 49 50
000
ASUS43 KIWX 200610
RWRIWX

KIWX WEATHER ROUNDUP
NATIONAL WEATHER SERVICE NORTHERN INDIANA
100 AM EST MON NOV 20 2017

NOTE: "FAIR" INDICATES FEW OR NO CLOUDS BELOW 12,000 FEET WITH NO
SIGNIFICANT WEATHER AND/OR OBSTRUCTIONS TO VISIBILITY.

* THESE STATIONS ARE NOT UNDER NWS QUALITY CONTROL. THEY ALSO MAY NOT
  REPORT WEATHER SUCH AS PRECIPITATION OR FOG.

INZ001>027-200700-
NORTHERN INDIANA

CITY           SKY/WX    TMP DP  RH WIND       PRES   REMARKS
GARY*          CLEAR     31  21  67 S5        30.08F WCI  26
VALPARAISO     CLEAR     29  22  75 SW9       30.09S WCI  20
6HR MIN TEMP:  29; 6HR MAX TEMP:  31;

MICHIGAN CITY* CLEAR     28  21  74 SW6       30.08F WCI  22
LAPORTE*       CLEAR     27  21  78 SW7       30.09R WCI  20
6HR MIN TEMP:  27; 6HR MAX TEMP:  30;

KNOX*          PTCLDY    28  23  80 SW7       30.10S WCI  21
SOUTH BEND     CLOUDY    26  21  81 SW9       30.08R WCI  17
6HR MIN TEMP:  26; 6HR MAX TEMP:  29;

GOSHEN         CLEAR     27  19  72 W12       30.08R WCI  17
6HR MIN TEMP:  27; 6HR MAX TEMP:  30;

MONTICELLO*    CLEAR     27  23  84 S6        30.12S WCI  21
6HR MIN TEMP:  27; 6HR MAX TEMP:  30;

LOGANSPORT*    CLEAR     28  23  80 SW8       30.14S WCI  20
ROCHESTER*     CLEAR     30  25  80 SW7       30.11S WCI  23
WARSAW*        PTCLDY    28  21  74 W7        30.09S WCI  21
AUBURN*        CLEAR     28  21  74 SW6       30.08S WCI  22
FORT WAYNE     PTCLDY    29  22  75 W12       30.10R WCI  19
6HR MIN TEMP:  29; 6HR MAX TEMP:  32;

HUNTINGTON*    CLEAR     27  21  79 W8        30.11S WCI  19
6HR MIN TEMP:  27; 6HR MAX TEMP:  29;

PERU/GRISSOM   CLEAR     25  23  94 SW9       30.12R WCI  15
6HR MIN TEMP:  25; 6HR MAX TEMP:  30;

MARION*        CLEAR     28  25  87 SW8       30.13F WCI  20
6HR MIN TEMP:  23; 6HR MAX TEMP:  58;


$$
INZ028>050-200700-
CENTRAL INDIANA

CITY           SKY/WX    TMP DP  RH WIND       PRES   REMARKS
LAFAYETTE      CLEAR     27  23  85 S3        30.14S
6HR MIN TEMP:  26; 6HR MAX TEMP:  29;

KOKOMO*        CLEAR     27  24  89 SW9       30.14  WCI  18
6HR MIN TEMP:  26; 6HR MAX TEMP:  30;

MUNCIE*        CLEAR     29  22  75 SW7       30.13R WCI  22
6HR MIN TEMP:  28; 6HR MAX TEMP:  30;

INDIANAPOLIS   CLEAR     26  21  81 SW8       30.17R WCI  18
6HR MIN TEMP:  25; 6HR MAX TEMP:  30;


$$
MIZ043>046-050>051-056>058-064>065-071>073-077>080-200700-
SOUTHWEST LOWER MICHIGAN

CITY           SKY/WX    TMP DP  RH WIND       PRES   REMARKS
BATTLE CREEK   CLEAR     27  22  81 SW9       30.02R WCI  18
6HR MIN TEMP:  27; 6HR MAX TEMP:  31;

BENTON HARBOR  CLEAR     36  26  67 W22       30.04F
6HR MIN TEMP:  34; 6HR MAX TEMP:  36;

COLDWATER*     CLEAR     28  22  80 SW8       30.04R WCI  19
6HR MIN TEMP:  28; 6HR MAX TEMP:  31;

HILLSDALE*     CLEAR     28  21  74 W7        30.01S WCI  21
HOLLAND        CLOUDY    37  27  67 W13G24    30.01S
6HR MIN TEMP:  33; 6HR MAX TEMP:  37;

GRAND RAPIDS   MOCLDY    32  26  78 W9        29.99R WCI  24
6HR MIN TEMP:  28; 6HR MAX TEMP:  34;

KALAMAZOO      CLEAR     28  21  75 SW8       30.03R WCI  20
6HR MIN TEMP:  27; 6HR MAX TEMP:  30;

STURGIS*       CLEAR     27  23  86 SW9       30.04S WCI  17
THREE RIVERS*  FAIR      29  23  77 SW6       30.06R WCI  23
6HR MIN TEMP:  29; 6HR MAX TEMP:  32;


$$
OHZ001>008-015>018-024>025-200700-
NORTHWEST OHIO

CITY           SKY/WX    TMP DP  RH WIND       PRES   REMARKS
WAUSEON*       CLOUDY    28  25  86 SW13      30.05S WCI  18
DEFIANCE       CLEAR     29  21  72 SW8       30.08S WCI  21
6HR MIN TEMP:  29; 6HR MAX TEMP:  32;

FINDLAY        CLEAR     30  23  75 W14       30.08R WCI  19
6HR MIN TEMP:  30; 6HR MAX TEMP:  33;

TOLEDO EXPRESS CLOUDY    31  23  72 SW12      30.06R WCI  22
6HR MIN TEMP:  31; 6HR MAX TEMP:  33;

TOLEDO METCALF CLOUDY    32  22  66 SW12      30.07R WCI  23
6HR MIN TEMP:  32; 6HR MAX TEMP:  34;

LIMA           CLEAR     28  24  85 W10       30.10R WCI  19
6HR MIN TEMP:  28; 6HR MAX TEMP:  31;


$$
AND FOR LAKE MICHIGAN COASTAL AND OPEN LAKE BUOY OBSERVATIONS

STATION/POSITION TEMP    WIND        PRES    VSBY  WAVE
                 AIR SEA DIR/SP/G                  HT/PER
                 (F)     (DEG/KT/KT) (MB)    (MI)  (FT/S)
CALUMET HARBOR           220/  7/  9 1017.4F
MICHIGAN CITY     30     200/ 11/ 12   N/A
BURNS HARBOR      31     210/  9/ 13 1019.0F
SAINT JOSEPH      39     250/ 20/ 25 1017.9
SOUTH LAKE BUOY   38 49  290/ 21/ 25 1016.8          5/ 5

$$
&&



USA.gov is the U.S. government's official web portal to all federal, state and local government web resources and services.